User: anonymous   Login
Location: Fort Worth, Tx
(32.7431°N, 97.3695°W)
Time: 01:40:38
(UTC-05:00)
Language:

Explorer 7 - Orbit

View from above orbital plane
View from above orbital plane
View from above satellite
View from above satellite

Ground track
Ground track

The orbit data is extracted from the following two-line orbital elements,

1 00022U 59009A   24056.58862885  .00007748  00000-0  48028-3 0  9995
2 00022  50.2773 230.3787 0116547  31.1961 329.5841 15.05137274672434
Epoch (UTC): 25 February 2024 14:07:37
Eccentricity: 0.0116547
inclination: 50.2773°
perigee height: 470 km
apogee height: 632 km
right ascension of ascending node: 230.3787°
argument of perigee: 31.1961°
revolutions per day: 15.05137274
mean anomaly at epoch: 329.5841°
orbit number at epoch: 67243

The dashed part of the orbit path shows where the satellite is in the earth's shadow,  

DLR